[[{"header":{"parameterUnit":"m.s-1","parameterCategory":1,"la1":30.2992,"la2":30.254,"lo1":-89.0895,"lo2":-89.0443,"dy":0.0025,"dx":0.0025,"nx":19,"ny":19,"refTime":"2026-05-06T21:00:00:Z","depth":0,"parameterNumber":2,"parameterNumberName":"U-component_of_WINDS"},"data":[0,0,0,-1.1714,-1.1713,-1.1649,-1.1649,-1.1576,-1.1575,0,0,0,0,0,0,0,0,0,0,0,-1.1741,-1.1741,-1.1714,-1.1713,-1.1649,-1.1649,-1.1576,-1.1575,0,0,0,0,0,0,0,0,0,0,0,-1.1741,-1.1741,-1.174,-1.1713,-1.1649,-1.1649,-1.1576,-1.1621,0,0,0,0,0,0,0,0,0,0,-1.1681,-1.1713,-1.1741,-1.174,-1.1713,-1.1649,-1.1649,-1.1623,-1.1618,-1.1609,0,-1.1606,0,-1.159,-1.1571,-1.1571,0,0,0,-1.1707,-1.1717,-1.1694,-1.174,-1.1712,-1.1649,-1.1676,-1.162,-1.1615,-1.1603,-1.1604,-1.1601,-1.1588,-1.1571,-1.1571,-1.1546,-1.1546,0,0,-1.171,-1.1733,-1.1697,-1.1691,-1.1703,-1.1678,-1.1674,-1.1616,-1.1618,-1.1604,-1.16,-1.1587,-1.157,-1.157,-1.1546,-1.1546,0,0,0,-1.1725,-1.1735,-1.1713,-1.1694,-1.1682,-1.1677,-1.1672,-1.1621,-1.1612,-1.1599,-1.1586,-1.157,-1.1569,-1.1546,-1.1546,-1.1576,0,0,0,-1.1727,-1.1744,-1.1715,-1.1728,-1.1683,-1.1651,-1.1678,-1.1616,-1.1609,-1.1587,-1.157,-1.1569,-1.1546,-1.1546,-1.1575,-1.1586,0,0,0,-1.1742,-1.1745,-1.1739,-1.1729,-1.1702,-1.1651,-1.1639,-1.1614,-1.1602,-1.1571,-1.1569,-1.1545,-1.1546,-1.1574,-1.1584,-1.1585,0,0,0,-1.1765,-1.1766,-1.174,-1.1736,-1.1703,-1.1672,-1.1639,-1.1614,-1.1591,-1.157,-1.1546,-1.1546,-1.1573,-1.1583,-1.1584,-1.159,-1.1595,0,0,-1.1778,-1.1768,-1.1764,-1.1739,-1.1718,-1.168,-1.1662,-1.1619,-1.1595,-1.1564,-1.1563,-1.1575,-1.1584,-1.1585,-1.1616,-1.162,0,0,0,-1.1776,-1.1773,-1.1763,-1.1744,-1.1713,-1.1686,-1.1645,-1.1629,-1.1601,-1.1584,-1.1576,-1.1581,-1.158,-1.1582,-1.1585,-1.1583,-1.1548,-1.1548,-1.1548,-1.1825,-1.1796,-1.1787,-1.1751,-1.1732,-1.169,-1.1672,-1.1643,-1.1618,-1.1616,-1.1606,-1.1629,-1.1631,-1.1634,-1.1632,-1.1608,-1.1608,-1.1608,-1.1608,-1.1841,-1.1832,-1.1801,-1.1781,-1.1749,-1.1731,-1.169,-1.1673,-1.1651,-1.1634,-1.1632,-1.1615,-1.1639,-1.1636,-1.161,-1.161,-1.1609,-1.1609,-1.1609,-1.1869,-1.1859,-1.1842,-1.1811,-1.179,-1.1753,-1.1733,-1.1705,-1.1678,-1.1677,-1.1662,-1.1662,-1.1656,-1.1673,-1.1673,-1.1673,-1.1673,-1.1673,-1.1673,-1.1904,-1.1883,-1.1871,-1.1839,-1.1823,-1.1798,-1.1757,-1.1739,-1.1713,-1.1693,-1.1693,-1.1667,-1.1648,-1.1643,-1.1674,-1.1674,-1.1674,-1.1674,-1.1673,-1.1928,-1.1918,-1.19,-1.1884,-1.1844,-1.1825,-1.179,-1.1758,-1.1739,-1.173,-1.1706,-1.1696,-1.1683,-1.168,-1.1675,-1.1713,-1.1713,-1.1713,-1.1713,-1.195,-1.1942,-1.1916,-1.1893,-1.1866,-1.1834,-1.1812,-1.1779,-1.1744,-1.173,-1.1721,-1.1713,-1.1712,-1.1699,-1.1696,-1.1691,-1.1731,-1.1732,-1.1732,-1.1962,-1.195,-1.1938,-1.1905,-1.1872,-1.1843,-1.1822,-1.1794,-1.1752,-1.1732,-1.1719,-1.1718,-1.1705,-1.1702,-1.168,-1.1675,-1.1666,0,0]},{"header":{"parameterUnit":"m.s-1","parameterCategory":1,"la1":30.2992,"la2":30.254,"lo1":-89.0895,"lo2":-89.0443,"dy":0.0025,"dx":0.0025,"nx":19,"ny":19,"refTime":"2026-05-06T21:00:00:Z","depth":0,"parameterNumber":3,"parameterNumberName":"V-component_of_WINDS"},"data":[0,0,0,2.5833,2.5832,2.574,2.574,2.5627,2.5626,0,0,0,0,0,0,0,0,0,0,0,2.5863,2.5862,2.5834,2.5831,2.574,2.574,2.5628,2.5626,0,0,0,0,0,0,0,0,0,0,0,2.5863,2.5863,2.5862,2.5831,2.574,2.574,2.5628,2.5695,0,0,0,0,0,0,0,0,0,0,2.5783,2.5812,2.5863,2.5862,2.5831,2.574,2.574,2.5698,2.5691,2.5671,0,2.5653,0,2.5638,2.5619,2.5619,0,0,0,2.5829,2.5819,2.5792,2.5862,2.583,2.574,2.5781,2.5694,2.5686,2.5661,2.5652,2.5647,2.5637,2.5618,2.5618,2.5513,2.5512,0,0,2.5834,2.5847,2.5798,2.5787,2.5801,2.5784,2.5778,2.5689,2.5679,2.5651,2.5645,2.5635,2.5618,2.5617,2.5513,2.5513,0,0,0,2.585,2.5851,2.5827,2.5792,2.5775,2.5781,2.5774,2.5683,2.5674,2.5644,2.5633,2.5617,2.5616,2.5513,2.5513,2.5508,0,0,0,2.5853,2.586,2.5829,2.5836,2.5777,2.5728,2.5771,2.5681,2.567,2.5634,2.5617,2.5615,2.5514,2.5513,2.5509,2.5503,0,0,0,2.5868,2.5862,2.585,2.5837,2.5798,2.5729,2.5715,2.5678,2.5664,2.5619,2.5614,2.5514,2.5513,2.551,2.5505,2.5482,0,0,0,2.5887,2.5844,2.585,2.5798,2.5799,2.5727,2.5715,2.566,2.5621,2.5617,2.5514,2.5513,2.551,2.5506,2.5483,2.5465,2.5459,0,0,2.584,2.5839,2.5808,2.581,2.5741,2.574,2.567,2.562,2.5602,2.5544,2.5541,2.5509,2.5505,2.5482,2.5418,2.5413,0,0,0,2.5797,2.5775,2.5754,2.5719,2.5681,2.565,2.561,2.5592,2.5542,2.5575,2.5493,2.549,2.5476,2.5468,2.5463,2.5452,2.5509,2.5509,2.5509,2.5749,2.5732,2.568,2.5654,2.5619,2.5581,2.5552,2.5522,2.5511,2.5493,2.5476,2.5439,2.5429,2.5426,2.5414,2.5464,2.5464,2.5464,2.5464,2.568,2.5647,2.5639,2.5587,2.557,2.5525,2.5488,2.5483,2.544,2.545,2.5436,2.5449,2.5421,2.541,2.5464,2.5464,2.5464,2.5464,2.5464,2.5647,2.5629,2.561,2.556,2.5523,2.5497,2.5458,2.5443,2.5428,2.5415,2.5397,2.5397,2.5396,2.5407,2.5407,2.5407,2.5407,2.5407,2.5407,2.562,2.56,2.5568,2.5529,2.5507,2.5475,2.544,2.5417,2.5388,2.538,2.538,2.5374,2.5421,2.5435,2.5405,2.5405,2.5405,2.5406,2.5406,2.5558,2.5571,2.5523,2.5501,2.5456,2.5423,2.5405,2.5362,2.5341,2.5322,2.532,2.5357,2.5354,2.5357,2.5368,2.5323,2.5323,2.5323,2.5323,2.5531,2.5529,2.5479,2.5446,2.5411,2.5392,2.5341,2.5314,2.5288,2.5275,2.528,2.5292,2.5296,2.5291,2.5295,2.5305,2.5245,2.5245,2.5245,2.5493,2.5488,2.5446,2.5423,2.5388,2.5359,2.5311,2.5273,2.5246,2.5242,2.5265,2.5268,2.5289,2.5296,2.5291,2.5298,2.5316,0,0]}]]